SCP
0 0 0 1 1 1 0 0 0 0 0 0 0 0 0 0 0 0 0 0 0 0 0 0 0 0 0 0 0 0 0 0
0 0 1 1 1 1 1 0 0 0 0 0 0 0 0 0 0 0 0 0 0 0 0 0 0 0 0 0 0 0 0 0
0 1 1 1 1 1 1 0 0 0 0 0 0 0 0 0 0 0 0 0 0 0 0 0 0 0 0 0 0 0 0 0
0 0 1 1 1 1 1 1 0 0 0 0 0 0 0 0 0 0 0 0 0 0 0 0 0 0 0 0 0 0 0 0
0 0 1 3 3 2 1 1 0 0 0 0 0 0 0 0 0 0 0 0 0 0 0 0 0 0 0 0 0 0 0 0
0 1 2 2 2 1 1 0 0 0 0 0 0 0 0 0 0 0 0 1 1 0 0 0 0 0 0 0 0 0 0 0
0 1 1 1 1 1 1 0 0 0 0 0 0 0 0 0 0 0 1 1 1 1 0 0 0 0 0 0 0 0 0 0
0 0 1 1 1 1 0 0 0 0 0 0 0 0 0 0 0 1 1 1 1 1 0 0 0 0 0 0 0 0 0 0
0 1 1 1 1 0 0 0 0 0 0 0 0 0 1 1 1 1 1 1 1 1 0 1 1 0 0 0 0 0 0 0
0 1 1 1 1 0 0 0 0 0 0 0 0 0 1 0 1 1 1 1 1 1 0 0 0 0 0 0 0 0 0 0
0 1 1 1 0 0 0 0 0 0 1 1 1 1 1 1 1 1 1 0 0 0 0 0 0 1 1 0 0 0 0 0
0 0 1 1 0 1 0 0 1 1 1 1 1 1 1 1 0 1 0 0 1 0 1 1 1 0 0 0 0 0 0 0
1 1 1 1 1 1 0 1 1 1 1 1 1 1 1 1 1 0 0 0 0 0 0 0 0 0 0 0 0 0 0 0
3 2 2 1 1 0 0 0 0 0 0 0 0 0 0 0 0 0 0 0 0 0 0 0 0 0 0 0 0 0 0 0
2 1 1 0 0 0 0 0 0 0 0 0 0 0 0 0 0 0 0 0 0 0 0 0 -0 -0 0 0 0 0 0 0
1 0 0 0 0 0 0 0 0 0 0 0 0 0 0 0 0 0 0 0 0 0 0 0 0 0 0 0 -0 -0 0 0
0 0 0 0 0 0 0 0 0 0 0 0 0 0 0 0 0 0 0 0 0 0 0 0 0 0 0 -0 -0 0 0 0
0 0 0 0 0 0 0 0 0 0 0 0 0 0 0 0 0 0 0 0 0 0 0 0 0 0 0 0 0 0 0 0
0 0 0 0 0 0 0 0 0 0 0 0 0 0 0 0 0 0 0 0 0 0 0 0 0 0 0 0 0 0 0 0
0 0 0 0 0 0 0 0 0 0 0 0 0 0 0 0 0 0 0 0 0 0 0 0 0 0 0 0 0 0 0 0
Wind_Speed_500mb
10 31 36 34 32 31 26 24 16 15 19 20 22 25 24 25 28 27 29 25 26 27 27 27 27 30 31 32 36 35 35 37
17 16 31 35 35 34 29 21 15 16 18 18 18 21 25 29 31 31 31 26 28 27 31 30 32 30 31 38 34 37 51 53
12 16 16 29 33 29 24 21 17 18 18 18 19 22 26 26 28 29 32 28 28 26 33 35 35 38 39 40 42 47 52 56
6 11 19 22 25 23 22 21 19 18 18 19 18 20 22 26 29 33 31 29 31 36 39 38 40 43 39 42 47 54 58 59
37 13 11 21 14 21 18 17 16 20 18 18 20 22 24 28 30 31 34 35 39 42 42 43 45 47 48 44 46 56 63 65
27 17 17 10 13 8 13 14 16 16 18 17 21 23 26 28 32 38 38 42 45 49 50 53 53 54 54 54 50 55 62 64
15 16 10 9 8 12 11 10 11 14 18 20 21 24 27 29 35 41 48 50 51 54 57 60 61 67 68 68 65 66 67 65
15 13 9 11 12 11 7 7 11 15 18 20 22 25 31 38 41 45 47 51 58 61 68 70 69 74 78 72 71 70 59 55
12 11 11 13 11 6 1 7 11 16 19 21 23 27 35 43 44 52 58 65 72 75 72 66 66 75 80 71 61 75 68 72
8 10 8 10 8 6 1 6 13 16 20 24 30 34 40 45 54 61 62 69 75 79 71 67 62 71 76 71 63 62 52 50
2 4 3 3 4 3 2 9 14 19 27 30 35 40 43 50 57 63 68 68 66 69 73 73 72 61 69 62 54 65 60 42
4 4 1 3 2 8 26 24 18 28 40 32 37 46 47 52 53 54 56 55 58 60 68 64 62 62 58 52 56 57 57 53
2 6 6 7 6 27 15 20 25 31 31 35 35 38 45 50 48 51 54 53 57 57 61 66 56 55 48 47 53 56 54 53
12 7 6 15 19 9 20 22 23 25 29 35 38 40 43 48 47 52 52 51 57 51 58 56 44 46 49 54 53 58 61 60
18 14 13 15 21 19 21 28 34 31 39 36 39 44 43 41 49 52 54 55 54 52 61 60 36 48 60 49 50 52 54 55
13 18 19 18 18 25 31 35 39 32 33 31 41 42 41 44 44 48 49 52 55 56 53 53 55 58 54 56 67 62 62 58
23 19 18 17 20 27 34 40 41 34 35 33 44 39 40 39 43 42 44 46 48 48 45 43 58 56 61 67 71 75 68 63
11 14 14 18 24 25 33 36 36 26 33 35 38 36 36 39 40 42 43 45 46 47 43 65 62 58 63 65 63 68 72 74
14 17 22 27 31 27 27 36 29 30 32 30 32 32 33 36 37 41 41 37 41 41 45 56 49 55 59 61 71 70 77 74
16 20 27 28 28 29 25 32 22 26 27 28 29 29 32 31 34 37 36 37 40 39 43 45 51 57 56 61 66 72 72 72
Wind_Direction_500mb
168 160 169 185 186 200 216 230 219 221 242 254 268 275 283 286 287 291 289 294 301 302 307 316 317 313 299 299 305 318 311 306
205 197 186 192 195 204 208 229 226 245 250 246 251 263 269 277 279 280 290 299 298 302 303 304 304 303 309 309 309 293 299 304
177 196 208 190 196 194 210 223 233 241 252 255 262 272 286 287 292 290 293 289 296 292 293 300 303 303 298 298 300 300 310 312
15 217 202 183 193 186 213 220 238 257 255 263 270 277 277 280 284 293 302 306 302 297 293 288 287 287 290 290 292 298 307 311
1 16 163 174 178 196 202 231 239 250 264 276 282 284 286 285 288 290 293 295 296 296 298 297 294 293 293 291 290 296 303 308
9 49 96 128 152 188 207 226 251 257 274 281 285 284 284 285 284 286 291 294 299 302 304 303 300 299 300 298 293 290 294 299
37 55 94 159 154 183 202 228 261 273 281 284 287 286 289 288 287 293 293 294 301 304 305 305 301 304 304 305 298 289 291 294
95 114 126 141 149 178 198 259 280 279 285 290 287 285 282 286 288 296 306 302 302 305 305 305 302 298 301 309 310 297 288 284
118 126 140 150 156 149 265 307 309 301 292 290 288 286 287 292 307 314 307 309 309 307 305 309 310 311 312 305 300 299 297 293
127 143 156 148 141 132 92 327 314 307 305 307 300 297 297 297 299 304 303 303 304 304 303 295 313 316 315 314 315 316 324 315
266 175 163 133 126 147 320 323 309 312 299 304 313 311 304 300 299 302 306 311 310 315 316 322 330 332 339 328 322 326 333 327
269 319 258 324 11 62 335 313 300 296 311 318 312 310 316 311 316 320 319 323 326 328 326 326 324 329 332 329 327 333 334 332
135 354 10 35 73 326 358 314 314 332 330 334 332 328 326 333 333 332 333 329 328 331 331 328 324 334 343 346 343 343 337 332
111 84 29 7 9 19 349 340 331 332 331 333 336 331 330 331 339 339 337 345 345 351 351 350 347 336 344 348 339 336 331 329
57 41 358 339 343 2 1 349 349 352 342 354 346 336 346 357 345 345 348 347 352 350 355 358 4 2 355 345 342 353 352 344
75 64 53 48 25 5 355 351 352 352 357 357 348 353 355 350 354 354 352 352 354 355 357 358 7 359 351 345 352 345 352 347
90 82 60 36 18 358 353 352 359 13 15 358 360 359 357 352 354 358 357 358 359 359 3 1 359 356 353 358 358 358 356 347
94 60 37 14 2 360 352 359 3 32 10 353 357 2 0 360 2 1 3 5 4 7 3 10 11 11 6 0 359 356 350 346
59 40 18 5 2 2 3 2 19 37 12 357 3 3 3 5 1 4 4 9 8 9 359 357 1 5 0 357 353 350 349 351
27 5 4 358 3 11 7 3 14 36 1 3 4 7 5 9 13 7 7 9 7 360 357 356 353 358 352 354 350 355 356 355
Wind_Speed_850mb
10 31 36 34 32 31 26 24 16 15 19 20 22 25 24 25 28 27 29 25 26 27 27 27 27 30 31 32 36 35 35 37
17 16 31 35 35 34 29 21 15 16 18 18 18 21 25 29 31 31 31 26 28 27 31 30 32 30 31 38 34 37 51 53
12 16 16 29 33 29 24 21 17 18 18 18 19 22 26 26 28 29 32 28 28 26 33 35 35 38 39 40 42 47 52 56
6 11 19 22 25 23 22 21 19 18 18 19 18 20 22 26 29 33 31 29 31 36 39 38 40 43 39 42 47 54 58 59
37 13 11 21 14 21 18 17 16 20 18 18 20 22 24 28 30 31 34 35 39 42 42 43 45 47 48 44 46 56 63 65
27 17 17 10 13 8 13 14 16 16 18 17 21 23 26 28 32 38 38 42 45 49 50 53 53 54 54 54 50 55 62 64
15 16 10 9 8 12 11 10 11 14 18 20 21 24 27 29 35 41 48 50 51 54 57 60 61 67 68 68 65 66 67 65
15 13 9 11 12 11 7 7 11 15 18 20 22 25 31 38 41 45 47 51 58 61 68 70 69 74 78 72 71 70 59 55
12 11 11 13 11 6 1 7 11 16 19 21 23 27 35 43 44 52 58 65 72 75 72 66 66 75 80 71 61 75 68 72
8 10 8 10 8 6 1 6 13 16 20 24 30 34 40 45 54 61 62 69 75 79 71 67 62 71 76 71 63 62 52 50
2 4 3 3 4 3 2 9 14 19 27 30 35 40 43 50 57 63 68 68 66 69 73 73 72 61 69 62 54 65 60 42
4 4 1 3 2 8 26 24 18 28 40 32 37 46 47 52 53 54 56 55 58 60 68 64 62 62 58 52 56 57 57 53
2 6 6 7 6 27 15 20 25 31 31 35 35 38 45 50 48 51 54 53 57 57 61 66 56 55 48 47 53 56 54 53
12 7 6 15 19 9 20 22 23 25 29 35 38 40 43 48 47 52 52 51 57 51 58 56 44 46 49 54 53 58 61 60
18 14 13 15 21 19 21 28 34 31 39 36 39 44 43 41 49 52 54 55 54 52 61 60 36 48 60 49 50 52 54 55
13 18 19 18 18 25 31 35 39 32 33 31 41 42 41 44 44 48 49 52 55 56 53 53 55 58 54 56 67 62 62 58
23 19 18 17 20 27 34 40 41 34 35 33 44 39 40 39 43 42 44 46 48 48 45 43 58 56 61 67 71 75 68 63
11 14 14 18 24 25 33 36 36 26 33 35 38 36 36 39 40 42 43 45 46 47 43 65 62 58 63 65 63 68 72 74
14 17 22 27 31 27 27 36 29 30 32 30 32 32 33 36 37 41 41 37 41 41 45 56 49 55 59 61 71 70 77 74
16 20 27 28 28 29 25 32 22 26 27 28 29 29 32 31 34 37 36 37 40 39 43 45 51 57 56 61 66 72 72 72
Wind_Direction_850mb
168 160 169 185 186 200 216 230 219 221 242 254 268 275 283 286 287 291 289 294 301 302 307 316 317 313 299 299 305 318 311 306
205 197 186 192 195 204 208 229 226 245 250 246 251 263 269 277 279 280 290 299 298 302 303 304 304 303 309 309 309 293 299 304
177 196 208 190 196 194 210 223 233 241 252 255 262 272 286 287 292 290 293 289 296 292 293 300 303 303 298 298 300 300 310 312
15 217 202 183 193 186 213 220 238 257 255 263 270 277 277 280 284 293 302 306 302 297 293 288 287 287 290 290 292 298 307 311
1 16 163 174 178 196 202 231 239 250 264 276 282 284 286 285 288 290 293 295 296 296 298 297 294 293 293 291 290 296 303 308
9 49 96 128 152 188 207 226 251 257 274 281 285 284 284 285 284 286 291 294 299 302 304 303 300 299 300 298 293 290 294 299
37 55 94 159 154 183 202 228 261 273 281 284 287 286 289 288 287 293 293 294 301 304 305 305 301 304 304 305 298 289 291 294
95 114 126 141 149 178 198 259 280 279 285 290 287 285 282 286 288 296 306 302 302 305 305 305 302 298 301 309 310 297 288 284
118 126 140 150 156 149 265 307 309 301 292 290 288 286 287 292 307 314 307 309 309 307 305 309 310 311 312 305 300 299 297 293
127 143 156 148 141 132 92 327 314 307 305 307 300 297 297 297 299 304 303 303 304 304 303 295 313 316 315 314 315 316 324 315
266 175 163 133 126 147 320 323 309 312 299 304 313 311 304 300 299 302 306 311 310 315 316 322 330 332 339 328 322 326 333 327
269 319 258 324 11 62 335 313 300 296 311 318 312 310 316 311 316 320 319 323 326 328 326 326 324 329 332 329 327 333 334 332
135 354 10 35 73 326 358 314 314 332 330 334 332 328 326 333 333 332 333 329 328 331 331 328 324 334 343 346 343 343 337 332
111 84 29 7 9 19 349 340 331 332 331 333 336 331 330 331 339 339 337 345 345 351 351 350 347 336 344 348 339 336 331 329
57 41 358 339 343 2 1 349 349 352 342 354 346 336 346 357 345 345 348 347 352 350 355 358 4 2 355 345 342 353 352 344
75 64 53 48 25 5 355 351 352 352 357 357 348 353 355 350 354 354 352 352 354 355 357 358 7 359 351 345 352 345 352 347
90 82 60 36 18 358 353 352 359 13 15 358 360 359 357 352 354 358 357 358 359 359 3 1 359 356 353 358 358 358 356 347
94 60 37 14 2 360 352 359 3 32 10 353 357 2 0 360 2 1 3 5 4 7 3 10 11 11 6 0 359 356 350 346
59 40 18 5 2 2 3 2 19 37 12 357 3 3 3 5 1 4 4 9 8 9 359 357 1 5 0 357 353 350 349 351
27 5 4 358 3 11 7 3 14 36 1 3 4 7 5 9 13 7 7 9 7 360 357 356 353 358 352 354 350 355 356 355